Погода в Эльтоне

Погода в Эльтоне : погода сейчас, прогноз погоды и архив. Всё, что Вы хотите узнать о погоде в Эльтоне!

Хотите узнать прогноз погоды в Эльтоне? Тогда Вам сюда: Погода в Эльтоне

Поиск расширенной информации на нашем сайте:

Другие новости

Новости СМИ2

Главная страница сайта

Новости сайта

02.10.2013

Напоминаем, что на нашем новом сайте вы можете получить высокодетализированные прогнозы погоды по пунктам России, СНГ и мира (включающие важные для авиации метеовеличины, такие как направление и скорость ветра, видимость, явления погоды, количество и форма облачности, нижняя и верхняя граница облачности), а также ознакомиться с разнообразными материалами по авиационной метеорологии и подборкой полезных ссылок на эту тему.

Сайт Метеоцентр.Азия посвящён разработке технологий оптимизации авиаметеорологического обслуживания, включая проектирование и перспективное создание нескольких автоматизированных авиаметеорологических систем:
- система выпуска высокодетальных прогностических карт явлений погоды для нижнего воздушного пространства по России и ближнему зарубежью;
- система верификации прогнозов TAF (выпускаемых синоптиками официальных АМСГ РФ и ближнего зарубежья) и AUTOTAF (выпускаемых сайтом Метеоцентр.Азия) - выявление ошибок, онлайн-сопоставление с фактической погодой METAR, автоматическое внесение коррективов в прогнозы при резком отклонении фактической погоды от прогноза, подсчёт оправдываемости прогнозов по элементам и в целом;
- система обработки, анализа и отображения авиаметеорологической информации для применения провайдерами метеорологической информации.

Рекомендуем: Сдать ноутбук в ломбард в Москве займы под залог ноутбуков социальный ломбард Москва.

Погода в Эльтоне - сегодня

Время (UTC), дата Ветер
(°,м/с) 
Видим.   Явления Облачность Т
(°С)
Тd
(°С)
f(%) Тe
(°С)
Pmin
(гПа)
dP
(гПа)
Po
(мм)
O2
(г/м3)
Тmin Tmax R s Состояние
почвы
06 17.02.17 340 (С) 20000 м    ясно 
-15.4 -18 80 -20  1027.5  1.7  770  330  -17         
09 17.02.17 330 (СЗ) 20000 м    ясно 
-12.2 -15.1 79 -16  1028.1  0.5  770  326           
12 17.02.17 330 (СЗ) 20000 м    ясно 
-10.5 -13.4 79 -15  1027.6  -0.5  770  324           
15 17.02.17 310 (СЗ) 20000 м    ясно 
-12.9 -14.8 86 -17  1028.2  0.6  771  327    -10.5       
18 17.02.17 160 (Ю) 20000 м    ясно 
-16.5 -18.6 84 -17  1027.9  -0.3  770  332           
21 17.02.17 150 (ЮВ) 20000 м    ясно 
-17.6 -19.9 82 -18  1027.4  -0.4  770  333           
00 18.02.17 130 (ЮВ) 20000 м    4/0 средняя 
[Ac trans]
-17.6 -19.9 82 -18  1026.1  -1.3  769  333           
03 18.02.17 150 (ЮВ) 20000 м    8/0 средняя 
[Ac trans]
-14.6 -16.5 85 -17  1024.5  -1.6  768  328  -17.8    0.0  50  равномерный
сухой снег
100% 
06 18.02.17 180 (Ю) 20000 м    10/0 средняя 
[Ac und]
-10.6 -12.6 85 -16  1023.2  -1.3  767  323           
09 18.02.17 210 (ЮЗ) 9-11{12}  20000 м  позёмок  10/10 600 м 
[Sc]
-7.2 -9.6 83 -13  1021.9  -1.3  766  318           
12 18.02.17 210 (ЮЗ) 7-10{12}  20000 м  позёмок  10/10 600 м 
[Sc]
-5.1 -7.8 81 -10  1020.3  -1.5  765  315           
15 18.02.17 220 (ЮЗ) 7{11}  20000 м    10/10 600 м 
[Sc]
-3.5 -5.8 84 -8  1020  -0.4  764  313    -3.5       
18 18.02.17 210 (ЮЗ) 4{10}  20000 м    10/10 600 м 
[Sc]
-2.2 -4.1 87 -5  1019.6  -0.3  764  311           
21 18.02.17 230 (ЮЗ) 7{10}  20000 м    10/10 600 м 
[Sc]
-0.6 -2.9 84 -5  1019.6  0.1  764  309           
00 19.02.17 240 (ЮЗ) 9-11{11}  20000 м  позёмок  10/10 600 м 
[Sc]
-0.4 -2.5 86 -5  1019.6  764  309           
03 19.02.17 250 (З) 10-12{12}  20000 м    10/10 600 м 
[Sc]
+0.2 -1.9 86 -5  1020.2  0.6  765  308  -3.5      50  равномерный
мокрый или
старый снег
100% 
06 19.02.17 240 (ЮЗ) 8-10{13}  20000 м    10/10 300 м 
[St]
+0.4 -1.8 85 -4  1021.4  1.2  765  308           
09 19.02.17 250 (З) 9-11{12}  20000 м    10/8 300 м средняя 
[St|Ac trans]
+1.1 -1.7 82 -3  1022.3  0.9  766  308           
12 19.02.17 250 (З) 8{12}  20000 м    10/10 600 м 
[Sc]
+1.5 -1.3 82 -2  1023.2  0.9  767  307           
15 19.02.17 250 (З) 6{10}  20000 м    10/10 600 м 
[Sc]
+1.3 -1 85 -2  1024.4  1.2  768  308    +1.5       
18 19.02.17 220 (ЮЗ) 20000 м    10/10 600 м 
[Sc]
+0.8 -0.9 88 -2  1024.5  0.1  768  309           
21 19.02.17 220 (ЮЗ) 20000 м    10/10 600 м 
[Sc]
+0.8 -0.8 89 -2  1024.1  -0.3  768  308           
00 20.02.17 220 (ЮЗ) 20000 м    10/10 600 м 
[Sc]
+0.9 -0.9 88 -3  1023.4  -0.7  767  308           
03 20.02.17 220 (ЮЗ) 20000 м    10/10 600 м 
[Sc]
+0.9 -0.9 88 -3  1022.5  -0.8  766  308  +0.8      48  равномерный
мокрый или
старый снег
100% 
06 20.02.17 220 (ЮЗ) 7{10}  20000 м    10/10 300 м 
[St]
+1 -0.9 87 -3  1022.5  766  308           
Время (UTC), дата Ветер
(°,м/с) 
Видим.   Явления Облачность Т
(°С)
Тd
(°С)
f(%) Тe
(°С)
Pmin
(гПа)
dP
(гПа)
Po
(мм)
O2
(г/м3)
Тmin Tmax R s Состояние
почвы

Для получения пояснительной информации подведите курсор к названию столбца.

ПОГОДА в Эльтоне - архив

Всё, что Вы хотите узнать о погоде в Эльтоне - удобно и подробно!

Выберите нужную дату (начиная с 1 января 2015* года) и нажмите кнопку "Найти".
Будут отображены архивные сводки погоды по пункту Эльтон, начиная с указанной даты.


Отображать данные в формате CSV (для использования в таблицах Excel)


Внимание! Наш архив погоды предназначен исключительно для личного некоммерческого использования в познавательных целях. Если Вам необходимы официальные справки о состоянии погоды (для производственных, юридических, коммерческих и т.п. целей), обращайтесь в органы Росгидромета.

*Примечание: данная дата относится к архиву по метеостанциям СССР (Россия, СНГ, Балтия).
Архив по метеостанциям Зарубежной Европы и Азии (кроме Китая) хранится 10 дней, по другим регионам земного шара (Китай, Африка, Америка, Австралия, Океания) - 1 день.

Эльтон - район местоположения метеостанции


Название, широта, долгота, высота метеостанции:
Эльтон 49.1°ш. 46.9°д. 6 м над ур. моря [Российская Федерация]

Дополнительная информация

В oтличие oт бoльшинства пoгoдных сайтoв мы публикуем пoдрoбную метеoинфoрмацию в детальнoм прoфессиoнальнoм фoрмате.

Характеристики температуры и влажнoсти вoздуха измеряются на высoте 2 м в тени вдали oт зданий и деревьев.
Скoрoсть ветра измеряется на высoте 10 м (на урoвне рoста челoвека скoрoсть ветра ниже в 1.5-2 раза). Если метеoстанция нахoдится в гoрoде или в лесу, тo скoрoсть ветра занижена на 2-4 м/с пo сравнению с oткрытым местoм. Скoрoсть ветра над акватoриями крупных рек и oзёр, а также на вершинах хoлмoв на 2-5 м/с выше, чем в oбычных услoвиях.
Атмoсфернoе давление в разных тoчках местнoсти мoжет значительнo oтличаться oт давления на метеoстанции, в зависимoсти oт услoвий рельефа (при пoдъёме на 10 м давление пoнижается примернo на 1 мм рт.ст.).